一网星座-0531星 (ONEWEB-0531 )

导读

ONEWEB-0531是英国OneWeb公司卫星互联网星座的组成部分,于2022年10月22日发射升空,是OneWeb构建全球低轨卫星互联网的节点之一。该卫星运行在1200公里近地极地轨道,配备Ku波段天线,为全球提供高速互联网接入服务,助力填补地面网络覆盖盲区,支撑偏远地区通信连接,是全球第二大低轨卫星星座建设的重要单元。

Basic Information
目录编号:
54146
目录名称:
ONEWEB-0531
国际标识:
2022-138AK
轨道中心:
EARTH
卫星名称:
一网星座-0531星
卫星全名:
一网星座-0531星 (ONEWEB-0531 )
卫星状态:
在轨 (已飞行1421 天)
发射日期:
2022-10-22 UTC
国别 :
英国 (GB)
星等 :
--
This satellite is enrolled in the Space Conjunction Data Service (SCDS) and the current flight risk assessment level is: No High Risk
Orbit Information
数据来源 国际轨道数据 AOE轨道数据
星历时间 2026-09-12T01:56:06+0800
12小时前
查看轨道信息
2026-09-06T23:00:00+0800
5天前
查看轨道信息
半长轴 7559.909km 7559.898km
偏心率 0.0001689 0.0001632
轨道倾角 87.914° 87.913°
近地点辐角 105.476° 109.810°
升交点赤经 257.169° 258.191°
平近点角 254.656° 28.944°
近地点 1180.495km 1180.527km
远地点 1183.049km 1182.995km
周期 109.027分钟 109.027分钟
每日圈数 13.207723 13.207753
Detailed Information
平衡模式:
三轴稳定
覆盖范围:
全球
运营商:
一网卫星公司
运营商所在国:
英国
制造商(研发单位):
一网卫星公司
制造商所在国:
英国
使用方式:
暂无
Satellite Introduction
OneWeb卫星网络由648颗重约125公斤的微型卫星组成,运行在1200公里的轨道上。 每颗卫星都能够提供至少每秒8千兆位的吞吐量,以使用其高吞吐量的Ku频段有效载荷为家庭和移动平台提供互联网接入。该卫星仍在工作。
2D Orbit Map
3D Orbit Map
Orbit Altitude Analysis Chart
Orbit Inclination Analysis Chart
Orbit Comprehensive Analysis Chart
View Comprehensive Chart
Miss Distance Evolution Trend with All Objects
Collision Probability Evolution Trend with All Objects